RH
44 39 36 33 32 31 28 26 25 25 26 31 39 44 46 47 44 39 34 30 27 25 24 24 26 27 27 26 26 28 31 34 35 36 38 41 43 43 44 44 44 44 44 45 45 45 45 46 48 49 49 48 47 47 48 49 51 52 53 55 55 53 51 49 52 54 54 58 64 70 70 63 58 58 58 59 57 53 51 44 37 45 58 55 34 29 42
41 37 35 33 32 28 26 26 26 27 32 41 47 48 48 45 39 34 30 27 25 24 25 26 27 26 25 26 29 32 34 35 38 41 42 43 43 44 46 46 45 44 44 44 44 45 46 47 48 48 48 47 47 47 48 48 49 49 49 52 53 52 51 49 49 48 46 46 50 63 78 84 83 81 80 76 66 58 53 45 39 40 56 69 53 27 27
39 36 34 32 29 27 27 27 27 33 43 51 51 49 46 40 34 31 29 27 25 26 27 27 26 26 28 31 34 35 36 39 42 44 43 42 43 46 48 46 43 43 44 44 45 45 46 47 48 48 48 48 48 47 48 49 50 50 52 57 61 62 64 65 61 52 45 42 46 60 74 84 88 88 89 82 63 53 54 47 37 33 42 65 63 32 19
36 35 34 31 28 28 28 28 35 47 55 55 51 47 42 36 32 30 28 27 27 29 28 26 27 30 33 34 35 37 40 43 43 43 42 43 45 47 47 44 44 46 46 46 46 46 47 48 48 48 48 49 49 50 52 54 56 58 62 68 73 74 77 82 77 66 60 59 62 71 80 86 88 87 89 82 58 49 56 45 34 36 36 43 51 35 19
36 35 32 29 29 29 30 37 51 59 57 52 48 45 39 33 31 30 29 29 30 30 28 28 31 34 35 36 37 40 43 44 43 43 44 46 47 47 46 47 48 49 48 48 47 47 48 49 49 49 49 52 54 55 58 61 64 68 71 76 81 82 86 93 91 80 76 75 74 83 92 93 92 90 92 90 69 54 56 44 35 46 41 28 30 28 20
36 33 30 30 30 30 38 53 63 61 54 50 47 42 36 33 31 30 30 31 31 29 29 31 35 36 37 39 41 43 43 43 43 46 48 49 48 49 50 50 50 50 50 50 50 50 50 51 52 53 54 57 59 61 64 68 72 75 77 81 86 88 90 97 100 94 90 89 86 91 99 97 94 92 96 101 86 62 55 46 36 45 48 32 24 23 20
35 31 30 31 31 36 52 66 65 57 53 50 46 40 35 33 31 30 31 32 30 29 31 35 37 39 40 41 42 43 43 43 46 49 51 51 51 52 53 51 51 51 52 52 53 54 54 55 56 57 58 60 63 66 69 72 76 79 81 84 88 91 94 101 106 103 102 104 98 95 99 98 92 91 98 104 91 67 58 51 36 37 47 41 30 25 22
33 30 33 32 33 47 65 69 60 55 53 49 44 38 34 33 32 32 33 31 30 31 35 38 40 41 40 41 42 44 45 47 50 53 54 54 54 54 52 52 52 53 53 53 54 55 56 57 59 60 61 63 65 69 72 75 78 81 82 85 90 95 99 104 107 105 105 107 103 98 98 95 88 88 91 90 82 74 69 58 41 32 32 31 28 23 19
31 32 33 32 42 61 70 64 56 55 52 46 40 35 33 33 32 32 32 32 32 35 37 40 41 40 40 42 44 45 48 51 55 57 57 56 55 53 52 53 54 54 54 55 55 56 58 60 61 61 64 66 68 72 77 79 82 85 87 89 94 99 102 103 103 105 106 106 105 100 92 85 80 78 74 70 74 82 77 58 46 40 29 20 20 17 14
32 34 32 38 58 72 68 59 58 57 51 44 38 35 34 33 32 32 33 34 35 35 37 39 40 40 43 46 46 48 53 58 60 62 60 57 55 55 55 56 56 57 56 55 56 58 59 61 62 63 65 68 72 76 81 84 86 90 93 96 99 103 104 104 104 105 105 104 104 102 93 82 73 66 62 58 59 68 65 44 32 37 34 23 19 16 13
35 33 36 54 73 73 64 62 61 56 49 43 38 35 34 32 32 34 36 36 35 34 37 40 40 43 46 47 49 55 62 65 66 65 63 58 57 58 58 59 60 60 58 57 57 59 60 62 65 66 68 71 75 79 84 88 91 94 98 101 102 103 103 102 103 105 106 102 98 97 92 80 64 53 53 51 42 45 55 44 26 26 33 31 26 21 14
34 33 50 73 78 70 66 65 60 51 46 42 38 35 33 32 34 37 37 36 34 36 40 41 42 46 49 50 56 64 71 71 69 67 64 61 60 61 62 63 64 63 61 59 59 61 63 66 67 69 72 74 78 83 87 91 94 96 99 101 102 102 103 101 100 103 105 99 91 88 84 75 62 49 47 47 37 35 49 55 42 30 30 29 22 17 13
32 44 70 82 75 70 70 63 53 48 45 42 38 34 33 34 36 37 36 35 37 40 42 42 45 49 51 56 65 72 74 72 69 66 64 63 64 65 67 68 68 67 65 63 63 64 66 69 71 73 76 78 81 85 89 93 95 97 100 103 102 103 105 102 97 97 97 92 90 90 87 81 72 57 45 43 36 28 32 40 37 28 24 20 14 11 11
39 65 83 81 75 74 67 55 49 48 46 40 36 34 34 36 37 36 36 38 41 42 42 44 49 52 55 63 71 74 72 69 67 65 64 65 68 69 71 71 70 70 69 69 70 69 69 72 74 76 78 81 83 86 89 93 98 100 102 105 105 103 104 103 97 94 94 89 86 85 82 79 74 62 49 40 32 25 23 24 24 22 18 15 11 9 9
59 83 87 82 80 73 60 51 51 50 44 37 34 35 37 37 36 37 38 40 42 42 42 46 51 55 60 67 70 70 69 67 66 66 66 68 71 72 72 73 72 72 73 74 76 76 75 77 80 80 81 84 86 88 92 95 99 101 102 104 106 103 103 104 100 96 97 91 80 73 68 64 62 58 51 41 31 26 27 24 22 21 17 12 10 8 7
81 91 88 87 82 67 56 54 54 49 40 35 35 37 38 36 36 38 39 40 42 43 45 49 54 58 64 67 66 65 65 65 64 66 69 71 71 72 73 74 74 73 75 78 80 81 80 81 84 86 86 89 91 93 96 98 99 101 102 104 106 105 102 104 101 98 100 99 88 78 71 63 59 55 49 44 36 29 28 26 22 20 17 12 9 7 5
92 93 93 89 75 61 57 57 53 44 36 35 38 38 37 37 37 38 39 40 43 46 49 52 56 60 63 64 64 62 61 62 64 66 69 69 69 72 75 76 76 75 75 78 81 83 83 83 87 90 92 94 95 95 98 101 101 102 104 105 108 108 104 105 104 98 98 103 98 90 83 77 72 64 51 44 40 33 28 24 18 15 14 11 7 6 5
94 95 94 83 67 59 59 56 48 39 35 37 39 39 38 37 37 39 41 41 44 49 51 54 58 60 60 61 61 59 58 60 63 65 67 68 70 74 77 79 78 76 76 79 82 83 85 86 89 93 94 97 98 96 98 103 102 101 102 103 105 106 104 104 105 99 96 101 100 94 88 82 80 78 65 48 38 31 25 21 15 12 11 9 6 5 5
93 96 88 74 62 59 58 52 41 35 36 39 40 39 39 38 38 41 42 42 45 49 52 55 58 58 56 56 57 57 57 59 62 64 66 69 73 77 79 80 79 78 78 80 82 84 86 89 92 94 96 99 99 97 99 103 104 102 102 102 104 105 102 100 102 98 94 97 97 90 82 75 72 74 70 52 34 24 20 18 16 12 10 8 6 5 4
93 91 78 67 60 59 56 46 37 36 39 40 40 39 39 39 40 42 44 43 45 49 51 53 54 53 52 53 55 55 56 58 62 64 67 70 73 76 79 80 78 78 78 79 81 84 86 89 93 96 98 100 100 99 100 103 105 105 104 104 104 104 101 97 96 92 87 91 96 89 78 72 65 62 60 49 32 22 18 17 16 13 10 8 6 6 5
89 82 71 63 59 58 52 41 35 38 40 39 39 40 39 41 42 43 43 43 45 49 50 49 49 50 51 53 54 54 55 58 61 64 68 71 73 75 77 77 75 76 77 78 80 82 84 89 95 98 100 102 100 100 101 102 105 106 105 105 105 106 104 100 98 96 87 86 94 95 85 78 70 61 54 46 33 23 19 18 16 14 12 9 6 6 5
85 77 67 60 59 56 46 36 36 40 39 38 40 40 40 43 44 44 44 45 47 50 49 47 48 50 51 53 53 53 55 58 61 65 69 71 72 72 73 73 71 72 74 76 79 81 84 89 95 99 101 102 101 101 101 102 104 106 107 107 107 106 106 104 103 105 100 92 95 100 95 87 80 71 60 49 36 25 20 18 17 14 13 10 7 6 5
83 75 64 60 60 52 40 36 39 39 38 40 41 41 42 44 45 45 47 49 50 49 48 47 49 51 52 53 52 51 54 59 64 68 69 68 68 68 69 69 68 68 71 74 77 81 84 88 93 97 100 101 101 102 102 102 104 106 107 108 107 104 105 107 106 107 106 101 100 101 97 87 80 78 73 62 48 33 22 18 17 14 12 10 7 6 5
83 72 63 62 58 45 37 38 39 38 40 42 42 43 45 45 46 47 49 50 49 48 47 48 50 52 52 52 50 51 55 63 69 71 70 65 63 63 64 65 65 65 67 72 76 79 82 86 91 95 98 101 102 103 104 103 105 107 107 108 108 104 104 107 108 106 106 105 104 108 107 94 81 77 73 63 50 36 24 19 15 12 10 9 7 6 5
80 69 65 62 51 40 37 39 38 39 42 43 43 44 46 45 45 47 48 50 49 47 47 49 51 53 53 51 49 51 60 70 75 74 69 64 61 60 59 61 63 62 63 68 73 76 78 83 89 93 97 101 103 104 105 104 105 107 108 109 109 106 103 104 106 106 104 101 99 104 110 106 92 78 66 52 40 30 21 16 13 10 9 8 7 6 5
76 67 65 56 44 38 38 39 39 41 43 44 44 44 44 44 45 46 48 50 50 48 48 50 53 56 55 52 53 58 67 76 77 73 69 65 62 59 58 59 61 61 59 62 67 71 74 79 86 91 95 99 102 104 106 106 105 107 109 110 110 108 104 104 104 103 100 96 90 88 92 94 85 69 54 42 31 22 17 13 10 9 8 7 7 6 5
73 66 60 48 39 38 39 39 41 43 45 45 44 43 44 45 45 45 46 48 49 49 50 51 54 56 57 58 61 66 72 75 74 71 69 66 62 60 58 58 60 59 57 57 60 65 69 74 81 88 92 95 99 102 105 106 106 107 109 111 112 111 107 105 104 102 98 93 86 79 76 73 64 52 42 34 25 18 14 11 9 8 7 6 6 6 5
72 63 52 42 38 38 39 39 42 45 46 45 43 43 44 44 43 44 45 45 48 51 52 52 54 57 62 65 66 68 71 71 69 68 68 65 63 61 59 58 58 58 56 54 54 58 63 68 75 81 86 90 95 99 103 105 105 107 108 110 112 113 110 107 106 104 99 91 84 78 72 66 57 46 37 29 21 16 13 10 8 8 7 6 6 5 5
69 55 45 39 37 39 40 41 44 46 45 44 44 44 43 42 42 44 45 46 50 53 54 55 58 61 65 68 68 68 70 69 66 66 67 66 64 63 62 60 57 56 55 52 51 53 57 61 68 74 80 85 90 95 101 104 104 105 107 108 110 112 110 108 107 106 102 96 88 80 72 66 60 49 38 28 20 15 12 10 8 7 7 6 6 6 5
61 47 40 37 37 40 40 41 44 45 43 44 45 44 44 43 42 42 45 48 51 54 56 60 63 65 67 69 69 67 66 64 62 63 65 66 66 64 64 62 58 55 54 51 48 48 50 54 62 68 73 78 84 89 96 101 103 104 106 108 109 110 109 108 107 105 104 101 95 86 76 68 60 51 39 29 21 15 12 10 8 7 6 6 6 6 5
52 43 37 37 39 40 41 42 44 43 43 46 47 47 46 43 41 43 47 51 54 56 59 63 66 67 68 70 67 63 61 60 59 59 62 65 66 64 62 61 58 55 54 50 47 47 48 50 55 61 66 72 78 84 90 96 100 103 106 108 109 108 108 108 107 105 102 100 95 89 81 73 63 51 39 28 21 15 11 9 8 7 6 6 6 6 6
46 39 36 39 41 40 41 43 43 42 45 48 49 48 45 41 42 46 49 52 55 58 60 63 65 65 67 66 63 60 60 58 55 56 60 63 64 61 60 60 59 57 55 52 48 47 49 48 49 55 62 67 71 77 85 92 97 101 105 107 108 108 107 107 108 107 105 99 92 85 78 72 64 52 38 27 20 14 11 9 8 7 6 6 6 6 6
40 35 37 42 42 41 43 43 42 44 47 48 48 45 42 42 45 48 51 54 57 59 60 63 65 65 65 64 64 65 63 59 54 55 59 62 61 59 58 59 59 58 57 53 49 49 49 46 46 51 57 62 66 72 80 88 93 98 103 107 108 109 108 107 107 108 106 100 91 81 71 64 58 49 38 28 20 15 11 8 7 6 6 6 6 6 6
35 36 41 42 41 42 44 42 42 45 48 48 47 45 44 47 49 50 53 57 59 61 63 64 67 68 67 68 73 73 65 59 56 57 60 62 59 57 59 62 63 62 58 53 51 50 47 44 44 49 53 57 62 68 75 82 89 94 100 105 107 108 109 108 107 107 106 101 93 82 70 60 54 48 40 29 20 15 11 8 7 6 5 5 6 6 6
35 40 43 42 42 44 43 42 43 44 45 46 47 46 49 54 55 55 59 61 61 66 69 68 69 73 74 78 83 76 62 58 60 61 62 62 59 60 65 70 71 68 61 54 51 49 45 42 44 47 50 54 59 64 70 78 86 93 99 104 106 106 107 106 105 104 103 100 94 84 73 63 54 48 40 29 20 15 11 8 7 6 5 5 5 5 6
39 43 42 42 42 43 42 42 42 42 43 46 49 51 55 60 61 62 65 65 65 69 73 72 73 77 78 79 77 67 58 59 65 67 67 66 66 69 75 77 76 71 61 53 50 47 44 44 45 45 48 52 57 61 68 76 84 91 98 102 105 105 104 103 103 101 99 97 93 85 76 67 57 48 39 30 21 15 11 8 7 6 5 5 5 5 5
42 43 42 43 43 42 41 39 39 41 44 47 52 57 60 63 65 66 66 67 68 70 72 73 75 76 73 67 62 60 62 67 72 76 78 75 74 76 78 78 77 70 59 51 49 46 45 46 46 45 47 51 55 60 68 75 82 89 95 99 102 102 101 100 100 98 96 94 91 86 79 71 60 50 40 31 22 16 11 8 6 5 5 4 4 5 5
43 41 41 43 42 40 38 37 39 43 46 50 56 61 62 65 68 68 66 65 67 69 72 76 77 77 75 70 71 77 83 86 89 92 90 84 79 78 76 75 73 66 56 50 49 47 46 47 46 45 47 50 54 60 67 74 79 85 90 95 99 100 100 100 99 97 95 93 90 86 79 70 59 48 38 29 21 15 11 8 6 5 5 4 4 5 5
43 41 40 40 39 37 37 39 43 46 50 54 58 62 64 67 70 70 68 65 65 69 75 79 82 84 86 87 90 96 99 99 99 99 95 89 82 76 72 71 69 61 54 51 49 47 47 49 48 46 47 49 53 59 65 72 78 82 86 91 96 99 100 100 99 97 95 91 88 83 76 67 56 44 34 27 20 15 11 8 6 5 5 5 4 5 5
42 41 39 37 36 36 39 43 46 49 53 57 60 64 67 71 75 77 72 65 62 67 75 81 86 91 93 94 98 102 103 100 98 97 95 91 82 73 69 68 63 56 53 52 48 46 47 50 50 49 48 49 52 57 63 71 77 81 84 89 94 98 100 100 100 98 95 90 87 82 76 67 56 44 34 27 21 15 11 8 6 6 5 5 4 4 5
39 38 36 35 36 39 42 46 49 52 56 60 63 67 71 77 84 84 73 61 58 64 75 86 94 97 98 99 100 102 102 101 100 98 94 86 77 71 68 64 58 55 54 51 46 45 47 50 52 52 50 49 51 55 61 69 78 82 85 88 93 97 99 100 101 99 95 91 87 83 77 69 58 46 36 28 21 16 11 8 6 6 5 5 5 5 5
36 35 33 35 38 42 45 48 51 56 59 62 66 70 75 83 92 88 73 60 58 64 77 93 101 100 99 101 102 101 101 101 99 95 87 76 71 68 64 59 56 56 54 49 45 45 47 51 54 54 52 50 51 53 59 67 77 84 86 87 90 95 98 99 99 98 94 90 86 81 75 68 59 48 38 29 22 16 11 8 6 6 5 5 5 5 5
34 33 34 38 41 44 48 52 55 59 63 64 65 70 77 84 92 90 77 65 62 66 78 94 102 101 100 101 101 100 100 98 91 83 74 68 65 62 57 55 57 57 52 47 46 47 49 52 54 55 54 52 51 53 58 66 76 83 85 85 87 92 95 95 96 96 94 89 85 80 74 67 59 50 40 30 22 15 11 8 6 6 5 5 5 5 5
34 35 37 40 42 46 51 56 58 62 64 63 64 70 76 81 90 96 90 77 69 69 78 93 101 102 100 101 100 99 98 92 82 71 66 67 67 63 57 57 58 56 51 48 47 47 50 52 53 53 54 52 51 53 58 66 75 83 86 85 86 90 92 92 92 93 92 89 84 79 72 66 59 51 42 32 23 15 11 8 6 6 5 5 5 6 5
35 38 39 42 46 50 55 59 61 63 63 61 64 70 74 80 91 102 101 89 76 71 79 93 101 101 100 101 101 100 97 90 80 70 66 68 69 66 61 60 59 56 52 50 48 47 49 51 51 51 51 51 51 54 59 67 75 81 84 84 85 88 90 89 88 90 90 87 83 78 72 66 59 51 43 34 24 15 10 8 6 5 6 6 5 5 6
38 40 42 45 49 54 58 62 65 65 64 63 66 70 74 82 95 104 103 95 83 75 80 93 101 101 100 101 101 101 99 93 84 77 71 68 66 64 61 60 60 57 53 49 47 47 48 50 49 48 47 49 51 55 60 67 75 80 82 82 84 87 89 87 85 87 88 86 81 76 71 66 59 50 41 33 24 16 10 8 6 5 6 6 5 6 6
41 43 46 50 53 57 60 63 64 66 66 67 69 72 76 87 99 103 102 98 89 79 80 93 101 101 99 100 102 104 101 95 90 86 78 68 62 60 58 58 60 59 54 49 46 46 47 49 48 47 46 48 52 57 63 69 75 79 81 81 83 86 88 86 83 84 86 84 81 76 71 65 58 49 39 32 24 16 10 7 6 5 6 6 6 6 6
46 48 50 53 57 61 63 64 65 68 69 70 71 73 79 92 103 104 102 101 94 81 79 91 100 101 100 101 102 101 99 96 93 89 78 67 61 58 57 58 61 60 55 49 45 45 47 50 50 48 47 50 53 59 65 71 75 79 81 81 81 85 87 84 82 82 83 83 80 76 70 64 57 48 38 30 23 16 11 7 6 5 5 6 6 6 6
51 53 56 58 61 62 63 64 67 69 70 72 74 75 82 96 106 103 101 102 94 79 77 89 99 101 101 100 97 94 94 93 88 81 73 66 62 59 59 61 64 62 55 48 43 44 48 51 52 51 51 52 56 61 67 72 76 79 80 80 80 83 85 83 80 80 82 82 80 75 69 63 56 48 38 30 22 16 10 7 5 5 5 6 6 6 6
54 57 61 64 65 65 64 65 69 71 73 76 77 77 84 98 107 105 104 104 93 76 74 87 98 98 96 94 89 86 85 83 78 74 72 68 63 62 64 67 65 60 53 46 42 44 49 54 56 57 56 55 58 62 67 72 76 78 79 80 80 82 83 82 79 78 81 82 79 74 68 62 56 48 39 30 22 15 10 7 6 5 5 6 6 7 6
58 62 65 66 65 65 65 66 71 75 78 79 78 78 85 98 106 105 106 105 92 74 72 84 93 92 90 87 83 79 79 78 77 77 76 71 65 66 68 68 62 56 51 47 44 46 51 56 60 61 60 60 61 64 68 73 77 79 80 80 80 81 83 81 78 78 80 81 78 73 67 61 56 49 40 30 21 15 10 7 6 5 5 6 7 7 6
64 67 68 67 65 65 66 70 75 80 82 80 77 77 84 96 104 106 107 102 88 73 72 83 91 91 89 85 80 77 78 80 80 79 76 71 66 66 66 64 60 56 52 48 47 49 53 59 64 65 63 63 64 66 69 74 78 79 80 81 81 82 83 81 78 78 79 78 75 71 66 60 55 49 40 31 22 15 10 7 6 5 5 6 6 7 7
Wind_Speed
14 15 16 17 18 19 19 19 20 20 21 20 20 21 23 25 26 28 30 30 28 27 25 23 20 19 19 21 22 24 26 27 29 31 33 34 36 38 41 42 43 43 43 43 43 44 44 45 45 45 46 46 47 47 48 48 49 49 50 51 53 54 55 55 57 60 62 63 63 65 67 67 67 68 69 71 74 75 77 79 78 78 83 87 85 81 85
15 16 17 18 19 19 19 19 20 20 19 19 21 23 25 26 29 31 31 29 27 25 23 21 20 21 22 24 26 27 28 30 31 32 34 35 37 39 41 41 41 41 42 42 43 44 45 46 47 48 48 48 49 50 50 51 52 53 55 57 59 61 63 63 62 62 62 62 64 68 71 74 75 76 76 77 78 79 80 81 79 78 82 90 91 85 83
15 16 18 18 18 19 19 20 20 19 19 20 22 24 26 29 31 32 30 27 26 24 22 21 22 24 26 27 28 29 30 31 32 33 35 37 39 40 40 40 41 42 43 43 45 47 48 49 50 51 51 52 53 54 55 56 58 59 61 63 66 68 71 73 72 71 70 70 72 76 78 81 82 82 82 81 80 81 84 84 82 80 82 88 93 91 84
16 17 18 18 18 19 20 19 19 18 19 21 24 26 28 31 32 30 28 26 25 23 22 23 25 27 28 29 29 31 31 32 33 35 36 38 40 40 40 42 43 45 46 47 49 51 52 53 53 54 55 57 58 59 61 62 64 65 67 69 71 73 75 79 80 79 80 80 81 83 84 85 85 84 84 84 82 82 86 87 85 84 84 84 91 95 91
17 18 18 18 18 19 19 18 18 19 21 23 25 28 31 32 31 29 27 25 24 23 24 25 27 28 29 30 31 32 32 33 35 36 38 40 42 43 44 46 47 48 50 51 53 54 55 56 58 59 61 62 64 65 66 68 69 70 72 73 75 77 78 81 83 84 84 84 84 85 86 86 86 86 86 86 85 83 86 89 87 88 89 86 87 93 94
17 18 18 18 18 19 18 17 18 20 22 25 28 30 32 31 29 27 25 24 23 23 25 27 29 30 30 31 31 32 32 34 36 38 41 43 44 46 47 48 50 51 53 55 56 58 59 61 62 64 65 67 68 69 70 72 72 73 75 76 78 79 80 82 85 86 86 86 86 86 87 87 87 87 88 88 87 85 87 89 88 89 93 92 90 92 96
17 17 17 17 18 17 16 16 18 21 24 27 30 31 31 30 27 25 24 23 22 24 26 29 30 30 30 30 31 32 34 35 38 41 43 45 46 47 48 50 51 53 55 56 58 60 62 63 65 66 68 69 70 72 72 74 74 75 77 78 80 81 82 83 85 87 87 88 88 87 87 88 88 88 89 89 88 87 89 91 89 89 93 96 96 95 96
16 16 17 17 16 15 15 16 19 21 25 28 30 30 30 27 25 23 23 22 23 26 28 29 29 28 29 30 31 33 36 38 41 43 44 46 47 48 49 51 53 54 56 57 59 61 62 64 66 68 69 71 72 73 74 75 76 77 79 80 82 83 84 85 86 87 88 88 89 89 88 89 89 89 89 89 89 89 92 94 93 91 91 93 96 97 96
15 16 17 16 14 14 15 17 20 23 27 29 29 29 27 25 23 22 22 23 25 27 28 27 27 27 29 31 33 36 39 41 42 44 44 46 47 49 50 52 54 55 57 58 60 62 63 65 67 68 70 72 73 74 75 76 78 79 81 82 83 84 85 85 86 87 89 89 90 89 89 89 90 89 89 90 91 92 94 98 98 97 96 95 96 98 98
15 16 16 14 13 14 16 19 22 26 28 29 29 28 25 22 21 22 23 24 26 27 26 26 27 28 30 32 35 38 41 42 43 44 45 46 48 50 52 53 55 56 57 59 61 62 64 66 67 69 71 73 74 76 77 78 80 81 83 84 85 85 86 86 86 87 88 89 91 91 90 90 90 90 90 91 92 92 94 97 98 99 102 101 100 100 99
15 16 14 13 13 15 18 21 24 26 27 28 28 25 22 21 21 23 24 25 26 27 26 26 27 28 31 34 37 40 42 42 43 44 45 47 49 51 52 54 55 57 58 60 62 63 65 67 68 70 72 74 75 77 78 80 81 83 84 85 86 86 87 88 88 89 89 90 90 91 91 91 91 92 93 94 93 92 94 98 98 98 100 102 101 100 98
15 14 12 12 14 16 19 22 24 25 26 27 25 22 20 21 22 23 24 25 27 27 26 26 27 29 32 36 39 41 42 42 43 44 46 48 50 51 53 55 56 58 59 61 63 64 66 68 70 71 73 75 77 78 80 81 82 84 85 86 87 88 89 89 90 91 92 92 92 92 93 94 95 95 95 95 95 93 94 98 101 100 100 101 100 100 100
14 12 11 13 14 16 19 22 23 25 26 25 22 20 20 21 22 23 24 26 26 26 26 26 28 30 34 38 40 40 41 42 43 45 47 49 51 52 54 56 57 59 61 62 64 66 67 69 71 73 74 76 78 80 81 82 84 85 86 87 88 89 91 92 92 93 94 95 96 97 97 98 98 97 97 97 97 96 95 97 101 103 104 103 102 102 103
12 11 12 13 14 17 20 22 23 25 25 21 19 19 20 21 22 23 25 26 25 25 26 27 29 32 36 38 39 39 40 42 44 46 48 50 52 53 55 57 59 61 62 64 66 68 69 70 72 74 75 77 79 80 82 83 85 86 87 88 89 91 93 94 94 95 96 97 98 98 98 99 100 100 101 101 101 101 101 102 103 105 106 105 104 102 101
10 10 12 13 15 18 21 22 24 24 21 19 18 18 19 20 22 24 24 24 24 25 27 29 31 33 35 36 37 38 40 43 45 47 50 52 53 55 57 59 60 62 64 66 67 69 71 72 74 75 77 78 80 81 83 84 86 87 88 89 90 92 94 95 97 98 99 100 99 99 99 100 102 104 105 105 105 105 105 105 104 105 105 105 103 101 98
10 10 11 13 16 19 20 22 23 21 18 17 17 18 19 20 22 23 23 23 25 27 28 30 32 33 34 35 36 38 41 44 46 48 51 53 54 56 59 60 62 64 65 67 69 71 72 74 75 76 78 79 81 82 84 85 87 88 89 90 92 93 95 97 98 99 101 102 103 103 103 103 104 105 106 107 108 108 108 106 104 104 105 105 103 100 98
9 10 11 13 17 18 19 21 21 18 16 16 17 17 18 20 22 22 22 23 26 27 28 30 31 32 33 35 36 39 42 45 47 49 52 54 56 58 60 62 64 65 67 69 71 72 74 75 76 78 79 81 82 83 85 87 88 89 90 91 93 95 96 98 99 100 102 104 105 106 107 107 108 108 108 108 109 110 110 108 106 105 105 106 106 104 101
9 9 11 14 16 17 19 20 17 15 15 16 16 17 18 20 21 21 22 23 26 27 29 30 31 31 32 35 37 40 43 46 48 51 53 55 58 60 62 64 65 67 69 71 73 74 76 77 78 79 81 82 83 85 86 88 89 90 92 93 94 96 98 99 101 102 103 106 107 108 108 109 110 111 112 112 110 109 110 111 111 110 109 109 109 107 104
8 9 12 14 15 16 18 17 14 14 14 15 16 16 18 19 20 20 21 23 25 27 29 31 31 32 34 36 38 41 44 47 50 52 54 57 59 62 64 66 67 69 71 73 75 76 77 79 80 81 82 84 85 86 88 90 91 92 93 95 96 98 99 101 103 104 105 107 109 109 109 110 111 112 114 114 113 112 112 113 114 113 112 111 110 110 106
7 9 11 13 14 16 17 14 12 13 14 14 15 16 17 18 19 20 21 22 24 27 29 31 33 34 36 38 39 42 46 48 51 53 56 59 61 63 65 66 68 71 73 74 76 78 79 80 82 83 84 86 87 88 90 91 93 94 96 97 99 100 102 103 104 106 108 110 112 113 113 114 114 114 115 116 117 116 116 116 115 115 114 112 111 110 108
8 10 11 12 15 16 14 12 11 12 13 14 15 16 16 17 18 19 20 22 24 27 29 32 34 36 38 39 41 43 46 49 51 55 57 60 61 63 65 67 69 72 74 75 77 79 80 82 83 85 87 88 89 91 92 94 95 97 98 99 101 102 104 105 107 109 110 112 114 117 117 116 116 116 116 117 118 118 117 117 117 117 117 115 112 111 109
8 9 10 12 15 14 12 10 11 12 13 14 15 15 15 16 17 19 21 23 25 27 30 32 35 37 39 40 42 44 47 49 52 56 58 60 62 63 65 67 70 73 75 77 78 80 82 84 85 87 89 90 92 93 95 96 98 99 100 102 103 105 106 108 109 110 112 113 114 116 117 117 117 117 117 118 118 117 116 117 117 118 118 116 114 111 109
8 9 10 13 14 12 10 10 11 11 13 14 14 14 14 15 18 20 22 24 26 28 31 33 35 37 39 40 42 44 47 50 53 56 58 60 61 63 65 67 70 73 76 78 79 81 83 85 87 89 92 93 95 96 98 99 101 102 103 104 105 106 108 109 110 111 112 113 114 115 117 117 118 119 119 119 119 118 117 117 116 116 116 116 114 112 109
7 8 11 13 12 10 9 10 10 11 13 13 13 13 14 16 18 21 23 25 27 30 32 34 36 38 39 40 41 44 47 50 53 55 58 60 61 63 65 68 70 73 76 78 80 82 84 87 89 91 94 96 98 99 101 102 104 105 106 107 108 109 110 111 112 113 114 114 115 117 118 118 117 118 118 118 118 118 117 116 115 114 113 113 113 111 108
6 8 10 11 10 9 9 9 10 11 12 11 11 12 14 17 19 22 24 26 29 31 33 34 36 38 39 40 41 44 47 50 53 55 57 60 62 64 66 68 71 73 76 78 81 83 85 88 90 93 95 98 100 102 104 105 107 108 109 110 111 112 112 113 114 115 115 116 116 117 119 120 120 119 118 117 117 117 116 115 113 112 110 109 109 109 107
5 7 9 9 8 9 9 9 11 11 11 10 10 12 15 18 20 23 25 27 29 32 33 34 36 38 39 40 42 45 48 51 53 55 58 60 63 65 67 69 72 74 76 79 81 84 86 89 91 94 96 99 101 104 106 108 110 111 112 113 114 114 115 115 116 116 117 118 117 117 118 120 120 120 119 119 118 117 115 114 113 111 110 108 107 106 106
5 7 7 7 9 9 9 10 10 10 9 9 10 12 15 19 21 23 25 27 30 32 33 34 36 38 40 42 44 47 50 53 55 56 58 61 64 66 68 70 73 74 76 79 82 85 87 90 92 95 97 99 102 105 108 110 112 113 114 116 117 117 118 118 118 118 119 120 120 120 120 120 121 121 120 120 119 118 117 115 114 113 113 111 109 106 104
5 5 6 8 9 9 9 10 10 8 7 8 11 13 16 19 21 23 26 28 30 32 33 35 37 40 42 45 47 50 52 55 56 58 60 62 64 66 68 71 74 75 77 79 82 85 88 91 93 95 98 100 103 106 108 111 113 115 116 118 119 121 121 121 121 121 122 122 123 124 124 123 123 123 123 122 120 119 118 117 116 116 115 114 111 108 105
4 4 7 9 10 10 10 10 8 7 7 9 12 14 17 19 22 24 27 29 30 32 34 36 39 41 44 47 49 52 54 56 58 60 62 64 66 67 69 71 74 76 78 80 83 86 89 92 94 96 98 100 103 106 108 111 113 116 118 120 122 123 124 124 124 123 124 125 125 126 126 126 126 126 125 124 122 120 119 118 117 116 115 114 112 110 106
2 6 9 10 10 11 10 9 7 6 7 10 13 16 18 20 23 25 27 29 31 33 35 38 40 43 46 48 51 53 55 57 59 62 64 65 67 68 70 72 75 77 79 81 83 87 90 92 95 97 98 101 103 106 108 111 114 116 119 121 123 125 126 127 126 126 126 127 127 128 128 127 127 126 125 125 123 121 119 118 117 115 114 113 113 111 109
5 9 11 11 11 11 10 8 6 6 8 11 14 17 19 21 24 26 27 30 32 34 37 39 42 45 47 49 51 53 56 58 60 63 65 67 68 69 71 73 75 78 80 82 84 87 90 93 95 97 99 101 103 106 109 112 114 117 119 122 124 126 128 129 129 129 129 128 128 128 129 128 128 127 126 125 123 121 119 117 116 115 113 112 112 111 110
9 11 12 12 12 10 8 6 5 7 10 12 15 18 20 23 25 26 28 31 33 35 38 41 43 46 48 50 52 54 57 59 61 64 66 67 68 70 72 75 77 79 81 83 86 89 91 93 95 97 99 101 103 106 109 112 115 117 120 122 124 127 129 131 131 131 131 130 129 129 128 128 129 128 127 126 125 123 120 117 115 114 112 110 109 108 107
12 12 13 13 11 8 6 5 7 9 11 14 16 19 21 24 25 27 29 32 34 37 40 42 44 47 49 51 53 56 58 60 62 65 67 68 69 71 73 76 78 81 83 85 88 90 92 93 94 96 99 101 104 106 109 112 115 118 120 123 125 127 130 132 133 133 133 132 131 130 129 129 129 129 129 128 126 124 121 118 115 113 110 108 105 103 101
13 13 13 12 10 8 6 6 8 10 12 15 17 19 22 24 26 28 31 33 36 38 41 43 45 48 50 52 55 57 59 61 64 66 67 68 69 71 74 77 80 83 85 87 90 92 93 94 94 96 99 102 105 107 110 113 116 119 121 123 125 128 130 132 134 134 134 133 132 132 131 130 130 130 130 129 127 125 122 118 115 112 109 105 102 99 96
14 14 14 11 9 7 6 7 8 11 13 16 18 20 22 25 27 30 33 35 37 39 41 44 47 49 52 54 57 59 61 63 65 66 67 69 70 72 75 78 81 84 86 89 91 93 94 94 95 97 100 103 105 108 111 113 116 119 122 125 127 128 131 133 134 134 134 134 134 133 133 132 131 131 130 129 127 125 123 119 115 111 107 103 99 96 94
15 15 13 10 8 7 7 8 10 12 15 16 18 21 23 26 29 32 34 35 38 40 43 46 48 51 53 55 58 60 62 64 66 67 69 70 72 74 76 79 81 84 87 89 92 94 95 96 96 97 100 103 106 109 112 114 117 120 123 126 128 129 131 133 134 134 135 135 135 134 134 133 132 131 130 129 127 125 123 119 116 112 107 103 99 97 94
16 14 12 10 8 7 7 9 11 14 16 17 19 22 25 28 30 32 34 37 39 42 45 47 50 52 54 57 59 61 63 65 67 69 70 71 73 75 77 79 81 84 86 89 91 94 96 97 97 99 101 104 107 110 113 116 118 121 124 126 128 130 132 134 135 136 136 136 136 135 135 134 132 131 129 128 127 125 123 121 118 114 110 106 102 99 96
16 13 11 10 8 7 9 11 14 15 17 18 20 23 26 28 31 33 36 38 41 44 46 49 51 54 56 58 60 62 64 67 69 70 72 73 74 75 77 79 81 84 86 88 91 94 96 98 99 100 102 105 108 111 114 117 119 121 124 126 129 131 133 135 137 138 138 138 138 137 136 135 133 132 130 129 127 126 125 123 120 117 114 109 104 100 98
15 12 10 9 7 8 11 14 16 17 18 19 22 24 27 29 32 34 37 39 42 45 47 50 53 55 57 60 62 63 65 68 70 72 73 74 75 76 77 79 81 83 85 88 91 94 97 99 100 101 104 107 109 112 115 118 120 122 124 127 129 132 134 137 139 140 141 141 141 140 139 138 137 135 133 131 130 128 126 124 121 119 116 112 107 102 99
14 12 9 8 8 11 13 15 16 17 19 21 23 26 29 31 33 35 38 40 43 46 48 51 53 56 58 61 63 65 67 69 71 73 74 75 76 77 78 80 81 83 85 88 92 95 98 100 102 103 105 108 111 113 116 119 121 123 125 127 130 132 135 138 140 141 142 143 143 143 143 142 140 139 137 135 133 131 128 125 122 120 117 113 109 104 100
13 11 8 8 11 13 15 16 17 18 20 23 25 28 30 32 34 36 39 41 44 47 49 52 54 56 59 61 64 66 69 71 72 74 75 76 77 78 79 80 82 83 85 89 93 96 99 102 104 105 107 109 112 114 117 120 123 124 126 128 130 133 135 138 141 142 143 144 145 145 144 143 142 141 139 137 136 133 131 128 124 121 118 114 110 106 102
11 9 9 10 13 14 15 16 17 19 22 24 27 29 31 33 35 37 39 42 45 48 50 53 55 57 60 62 65 67 69 71 72 74 75 76 77 78 79 80 82 84 87 91 95 98 101 103 105 107 109 111 113 115 118 121 124 126 127 128 130 133 136 138 141 143 144 145 146 146 145 144 143 142 141 139 136 134 132 129 126 122 119 115 112 108 104
10 10 11 12 13 13 14 16 18 20 23 26 28 29 31 33 35 38 40 43 46 49 52 54 56 59 61 63 65 67 69 71 73 74 76 77 78 78 79 81 82 85 89 93 97 101 103 105 106 108 111 113 115 117 119 122 124 127 128 129 131 133 136 138 141 143 144 145 146 146 146 145 144 143 142 140 137 135 132 129 126 122 119 115 112 108 105
11 11 12 12 12 12 14 16 19 21 24 26 28 30 32 34 37 39 42 45 48 51 53 55 57 60 62 64 66 67 69 71 73 75 76 77 79 79 80 82 84 87 91 95 99 102 105 106 108 110 112 115 117 118 120 123 125 127 129 130 132 134 136 138 141 143 145 146 146 147 146 146 144 143 142 141 138 135 132 129 126 122 119 115 111 107 104
11 12 12 11 11 12 15 17 20 22 24 27 28 31 33 36 38 41 43 46 49 52 55 56 58 60 62 64 66 67 69 72 74 75 76 78 80 81 82 83 86 89 92 96 100 103 106 108 109 111 113 116 118 120 122 124 126 128 129 131 133 135 137 139 141 143 145 146 147 147 147 146 145 143 142 141 138 135 132 130 127 123 119 115 111 107 104
10 11 11 10 11 13 16 19 21 23 25 27 29 32 35 37 40 42 44 47 50 53 56 57 59 61 62 64 66 68 70 72 74 76 77 79 81 82 83 85 87 90 93 97 101 105 107 109 111 112 114 117 119 122 124 125 127 129 130 132 134 136 137 139 141 143 145 147 147 148 148 147 146 144 142 140 138 135 132 130 127 124 120 116 112 108 104
9 9 9 10 12 15 17 20 22 24 26 28 31 34 36 39 41 43 45 48 51 54 56 58 59 61 62 64 67 69 70 72 75 77 78 80 81 82 84 86 89 91 94 98 102 106 108 111 112 114 115 118 121 123 125 127 129 130 132 133 135 136 138 140 142 144 146 147 148 149 149 148 146 144 142 139 137 135 132 129 127 124 120 116 113 109 106
7 7 9 11 13 16 19 21 23 25 27 30 33 35 37 40 42 44 47 49 52 54 57 58 60 61 63 65 67 69 71 73 75 77 79 80 82 83 85 88 90 92 95 99 103 107 110 112 114 116 117 119 122 125 127 129 130 131 133 135 136 138 139 141 142 144 146 148 149 150 150 149 147 145 142 139 137 134 132 129 126 123 121 117 114 110 107
6 7 9 12 15 17 20 22 24 26 29 31 34 36 39 41 43 46 48 50 52 55 57 58 60 62 64 66 68 70 72 74 76 77 79 81 83 85 87 89 91 93 96 100 104 107 110 113 116 118 119 122 124 127 129 131 132 133 135 136 138 139 140 141 143 145 147 149 150 151 150 150 148 146 144 140 137 134 131 128 125 123 121 118 114 111 108
5 8 10 13 16 18 21 23 25 27 30 32 35 38 40 42 45 47 49 50 52 55 57 59 61 63 65 67 69 71 73 75 77 78 80 82 84 87 89 90 92 94 98 102 105 108 111 115 117 120 122 124 126 128 130 132 133 135 136 138 139 140 141 142 144 146 148 150 151 152 151 151 150 148 145 142 138 134 131 128 125 122 119 117 114 111 108
6 9 12 15 17 19 21 23 26 28 31 33 36 39 41 43 45 47 49 50 52 55 57 59 61 63 65 67 70 71 73 76 78 80 81 84 86 88 90 92 94 97 101 104 107 110 113 116 119 121 123 125 127 130 132 134 135 136 138 139 140 141 143 144 145 147 149 151 152 152 152 152 151 150 147 143 139 135 132 128 125 121 118 115 112 110 108
8 11 13 16 18 20 22 25 27 29 32 35 37 39 42 44 46 47 49 50 53 56 58 60 62 65 67 69 71 73 75 77 79 81 83 85 87 89 91 94 97 100 103 105 108 111 114 117 120 122 124 126 129 131 133 135 137 138 139 141 142 143 144 146 147 148 150 151 152 152 152 152 151 150 148 144 140 136 132 128 124 121 117 114 110 108 108
Wind_Direction
25 24 21 19 18 16 14 13 11 9 7 5 2 1 1 358 354 354 356 358 359 0 6 10 10 10 11 12 11 11 9 8 8 6 4 2 0 359 358 357 356 355 355 355 355 357 358 358 358 357 357 356 355 354 354 354 354 354 354 354 352 351 351 352 354 354 354 354 352 351 348 345 344 344 343 342 340 339 336 335 338 340 337 334 333 335 336
22 20 19 18 17 15 13 11 10 8 7 4 2 2 359 355 354 358 1 2 3 8 13 14 13 14 15 15 14 13 11 11 10 7 4 3 1 1 1 359 359 360 1 2 3 4 4 4 3 2 0 360 359 358 358 358 358 358 358 358 357 356 355 355 356 356 354 353 352 352 352 351 351 350 349 347 344 342 339 337 339 341 339 338 335 334 335
19 18 18 17 15 14 12 10 9 8 6 3 3 1 357 356 359 3 5 7 11 16 16 15 17 19 19 18 16 14 14 12 10 7 5 4 4 6 5 4 4 6 7 8 9 10 10 9 8 6 5 5 4 3 4 4 4 3 4 4 3 3 1 359 359 358 356 354 354 354 354 354 353 352 351 348 345 344 340 337 340 341 340 340 337 334 334
16 17 18 16 14 13 11 10 9 7 5 4 2 359 358 360 4 7 11 14 17 18 17 18 21 22 20 19 18 17 15 12 10 8 7 8 10 11 10 10 11 12 12 12 13 14 13 12 11 10 10 9 9 9 8 8 8 8 8 8 8 7 6 3 2 2 360 358 358 356 355 355 353 352 351 349 346 345 341 338 341 341 339 339 337 335 335
15 17 17 15 13 12 11 11 9 6 4 3 -0 359 1 4 8 13 17 19 19 18 18 21 24 23 22 21 19 18 15 12 11 11 12 14 15 15 15 15 16 15 15 15 15 15 15 14 14 13 13 12 12 12 11 11 11 10 10 10 10 9 8 6 4 3 2 360 359 358 356 355 353 352 351 350 348 347 342 339 342 342 338 338 338 336 337
14 15 16 14 12 12 12 11 8 4 3 1 0 2 5 8 13 18 20 21 20 19 21 24 25 24 23 22 19 17 16 15 16 16 17 18 19 18 18 18 17 16 16 16 16 16 15 15 15 14 14 14 13 13 12 12 12 11 11 10 10 10 9 8 6 4 3 0 359 359 357 355 354 353 352 351 349 348 343 340 342 342 340 339 339 339 340
13 14 15 13 12 13 13 10 6 4 3 2 3 6 8 12 18 21 21 21 20 21 25 27 27 25 23 21 20 20 20 20 21 21 21 21 21 20 19 18 17 17 16 16 16 16 16 15 15 15 14 14 14 13 12 12 12 12 11 10 10 10 9 8 7 5 3 1 360 359 357 355 354 353 353 351 350 349 344 341 342 343 341 341 342 342 342
12 14 13 12 13 14 12 8 5 3 3 5 6 8 11 17 22 23 23 22 20 24 29 30 28 24 22 22 23 25 25 24 24 25 24 23 21 19 18 17 17 17 16 16 16 16 16 15 14 14 14 14 14 13 12 12 11 11 11 10 10 10 9 8 8 6 4 2 1 359 358 356 355 354 353 351 351 351 346 341 343 343 342 342 342 342 343
11 13 12 11 14 14 10 5 3 3 4 5 7 11 16 22 25 25 25 23 23 28 31 30 26 23 23 26 28 28 27 27 27 27 24 22 20 18 17 17 16 16 15 15 15 15 15 15 14 14 14 13 13 13 12 12 11 11 11 10 10 10 9 8 7 6 4 2 1 360 358 356 355 353 352 351 352 353 348 343 344 344 342 343 343 343 343
11 12 12 13 16 12 6 4 5 7 7 5 8 15 21 24 27 27 27 25 26 30 32 28 25 25 28 31 30 30 30 29 29 27 23 21 19 17 16 16 15 15 14 14 14 14 14 14 13 13 13 13 13 12 12 12 11 11 11 10 9 9 8 7 6 6 5 3 2 0 358 356 355 353 352 351 352 353 349 343 343 345 344 344 345 344 343
11 12 13 17 16 9 5 7 10 10 8 6 11 19 24 27 29 30 28 27 29 31 30 27 26 30 33 32 31 32 32 30 27 24 21 19 18 16 15 15 14 14 13 13 13 13 13 13 13 13 13 13 13 12 12 12 11 11 10 10 9 8 7 6 5 5 5 3 2 1 359 357 355 353 353 352 350 352 351 346 343 345 346 346 345 344 342
11 13 19 21 14 6 6 10 11 10 8 9 16 23 26 29 32 32 30 30 30 29 27 27 30 34 34 33 34 35 33 28 24 22 20 18 17 16 15 14 14 13 12 12 12 12 12 12 12 12 12 13 13 12 12 12 11 10 10 9 8 7 7 6 5 4 4 2 1 1 359 357 356 354 353 352 350 351 352 349 346 346 346 346 345 343 343
13 19 25 20 9 5 8 10 10 9 10 15 22 27 29 31 35 35 34 33 30 27 27 30 34 36 36 36 37 34 30 26 22 20 18 17 17 16 15 14 13 12 12 12 12 12 12 12 12 12 12 12 12 12 12 11 11 10 9 9 8 7 6 5 4 3 3 2 1 1 0 359 357 355 353 352 351 350 351 350 348 347 346 345 344 345 345
21 29 26 14 6 6 8 9 10 10 14 21 28 30 32 35 38 38 35 33 30 27 30 34 37 37 38 38 36 31 27 24 21 19 18 18 17 16 15 14 13 12 12 11 11 11 11 11 11 12 12 12 12 12 12 11 11 10 9 9 8 7 6 5 4 3 3 2 1 1 0 359 357 356 354 353 352 351 351 350 349 347 345 344 345 346 345
34 34 22 10 5 7 8 9 10 12 18 28 32 33 35 38 40 39 35 31 30 31 33 37 39 40 40 37 33 29 26 23 21 19 18 18 18 16 15 14 13 12 12 11 12 11 11 11 11 11 11 12 12 12 12 11 11 10 9 9 8 7 6 5 4 4 3 2 1 360 359 359 358 357 356 354 353 352 352 351 350 348 345 345 345 345 345
42 31 17 9 7 9 10 11 11 15 25 34 35 36 39 40 40 38 33 31 33 35 36 39 42 41 38 34 29 26 24 23 21 21 20 19 18 16 16 15 14 13 12 12 12 11 11 11 11 11 11 11 11 11 11 11 11 10 9 8 8 7 6 6 5 4 4 3 1 0 360 359 358 357 356 355 354 353 352 351 350 348 346 345 344 345 346
42 27 15 10 10 11 12 10 12 22 34 38 38 41 42 41 39 35 31 32 37 37 38 41 42 39 34 30 26 24 23 23 23 22 21 19 18 17 17 16 15 14 13 12 12 12 11 11 11 11 11 11 11 11 11 11 10 10 9 8 8 7 7 6 5 4 4 3 3 2 1 0 360 358 357 356 355 354 352 349 349 348 347 346 345 346 348
38 23 15 12 12 12 11 10 17 33 40 41 42 44 43 40 36 33 32 36 39 39 39 40 39 34 30 27 24 23 24 24 24 22 21 20 19 19 18 17 15 14 14 13 13 12 12 12 12 12 12 11 11 11 10 10 10 10 9 8 8 7 7 6 5 5 4 3 3 3 2 1 1 359 357 356 355 354 352 350 349 349 348 347 346 347 349
35 23 16 14 12 11 10 14 28 43 44 45 47 46 42 37 33 31 34 38 40 39 38 38 34 30 27 25 24 24 25 25 25 23 22 21 20 19 18 17 16 15 14 14 13 13 13 13 12 12 12 11 11 10 10 10 9 9 8 8 8 7 6 6 5 4 4 4 2 2 2 1 1 360 358 356 355 354 353 352 350 349 348 348 348 347 349
33 22 17 14 11 10 14 25 42 48 48 51 51 46 39 34 31 34 38 39 38 38 36 34 31 28 25 24 25 25 26 26 26 24 23 21 20 19 18 17 16 15 15 14 14 13 13 13 12 12 12 12 11 10 10 10 9 9 8 8 7 7 6 5 5 4 4 3 2 2 2 1 0 360 358 356 355 354 353 352 351 349 349 348 348 348 348
28 21 16 12 10 13 23 39 51 53 53 55 52 44 36 32 33 38 39 36 36 35 32 30 28 25 24 25 27 27 27 27 26 24 22 20 19 18 17 16 16 15 15 14 14 13 13 13 13 12 12 12 11 10 10 10 9 9 8 8 7 7 6 6 5 4 4 4 3 2 2 1 0 359 359 357 356 355 354 352 351 350 349 349 348 348 349
24 20 13 11 13 21 37 53 56 56 57 56 50 41 34 34 38 41 39 35 34 32 30 28 26 24 24 27 28 27 27 26 25 23 21 19 18 17 16 16 15 15 15 14 14 13 13 14 13 13 13 12 12 11 10 10 9 9 8 8 7 7 6 6 6 6 5 4 4 3 1 1 1 0 359 358 356 355 354 353 352 351 350 349 348 348 349
22 16 11 12 19 33 53 61 59 59 60 55 46 38 37 41 43 41 38 35 33 30 29 28 26 25 26 27 28 27 26 25 23 21 19 18 17 16 15 15 14 14 14 13 13 14 14 14 14 14 13 13 12 11 11 10 9 9 8 8 7 7 7 6 6 6 5 5 4 3 2 1 1 1 -0 359 357 356 355 354 353 352 351 349 348 348 349
17 13 11 16 28 50 66 64 62 63 60 51 42 41 44 46 44 40 36 33 31 29 29 28 27 26 26 27 27 26 24 22 20 18 17 17 16 15 14 13 13 13 13 13 13 13 14 14 14 14 14 13 13 12 11 10 10 9 8 8 7 7 7 6 5 5 5 5 5 4 3 1 1 1 0 359 358 357 355 354 353 352 351 350 349 348 349
14 12 14 23 45 69 73 69 69 66 57 48 44 48 49 47 43 39 35 31 28 28 29 29 27 26 26 26 25 24 21 18 16 15 15 15 14 14 13 12 12 12 12 12 12 13 13 13 14 14 14 13 13 12 11 10 10 9 8 8 7 7 6 6 5 5 4 4 4 4 3 2 1 0 360 359 358 357 355 354 353 352 352 351 350 349 348
11 11 19 41 71 82 78 77 74 64 54 51 52 53 50 45 40 36 32 29 26 27 29 29 26 25 24 24 22 20 18 16 14 13 13 13 13 12 12 12 11 11 11 11 12 12 12 12 13 13 13 13 13 12 11 11 10 9 9 8 7 7 6 6 5 5 4 3 3 3 3 2 1 360 359 359 358 357 355 354 353 352 352 351 351 350 349
5 11 35 74 92 90 86 83 74 63 60 61 59 53 47 42 38 33 29 26 25 26 28 27 25 23 23 21 19 17 15 13 12 11 11 11 11 11 11 11 10 10 10 10 10 11 11 11 12 12 13 13 13 12 11 11 10 9 9 8 7 7 6 6 5 5 4 3 2 2 2 1 360 359 359 358 358 357 356 354 353 352 352 352 351 350 350
1 23 73 101 103 98 93 84 73 71 73 67 57 49 44 39 34 30 27 25 25 26 26 25 24 22 21 19 16 15 14 12 11 10 10 10 10 10 10 10 9 9 8 9 9 9 10 10 10 11 11 12 12 12 11 11 10 9 9 8 7 7 6 6 6 5 4 3 2 2 2 1 360 359 359 358 358 357 356 355 354 354 353 352 351 350 351
10 69 110 116 110 104 95 86 84 86 77 62 52 45 40 35 31 29 26 25 25 25 25 24 23 21 19 17 15 13 12 11 10 10 10 9 9 9 9 9 8 8 7 7 8 8 9 8 8 9 10 10 11 11 11 10 10 9 9 8 8 7 6 6 5 5 4 4 3 2 1 1 0 359 359 358 358 357 357 356 355 354 353 352 351 350 350
75 117 126 121 114 107 97 94 98 91 67 55 48 43 37 33 30 28 26 25 24 23 23 23 20 18 17 15 13 12 11 10 9 9 9 9 8 8 8 8 7 7 6 6 6 7 7 7 7 7 8 9 10 10 10 10 9 9 9 8 8 7 6 5 5 5 5 4 3 2 1 1 0 360 359 358 358 358 357 357 356 355 354 353 351 350 349
130 134 131 122 113 106 102 103 102 77 58 50 45 39 35 31 30 28 26 24 23 22 21 19 17 16 15 13 11 11 10 9 8 8 8 8 7 7 7 7 6 6 6 5 5 6 6 6 6 6 7 8 9 9 9 9 9 9 8 8 8 7 6 5 5 5 4 4 3 3 2 1 0 359 359 358 358 358 358 357 356 355 355 354 352 351 350
143 140 130 120 113 109 111 113 91 65 54 47 40 36 33 31 30 27 24 23 21 19 18 16 15 14 13 11 10 9 8 7 7 7 7 7 7 7 7 6 5 5 5 4 4 4 5 5 5 5 6 7 8 9 9 9 8 8 8 8 7 7 6 5 5 4 4 3 3 2 2 1 0 359 359 358 358 358 358 358 357 356 355 355 353 352 350
149 140 128 120 116 117 121 106 77 61 50 41 35 33 32 30 28 25 23 21 18 16 15 15 14 13 12 10 9 8 7 6 6 6 6 6 6 6 6 5 5 4 4 3 3 3 4 4 4 5 5 6 7 8 8 8 8 8 8 7 7 7 6 5 5 4 4 3 2 2 1 1 0 360 359 358 358 358 357 357 357 356 356 355 354 352 351
149 136 126 124 127 128 119 93 72 56 44 37 33 32 31 28 25 23 21 19 16 15 14 14 13 12 11 9 9 7 7 6 6 6 6 6 6 5 5 4 3 3 3 2 2 3 3 3 4 4 5 6 7 7 8 8 8 7 7 7 7 7 6 6 5 4 3 3 2 1 1 1 0 360 359 358 358 357 357 357 357 357 356 355 354 353 351
144 132 128 133 138 134 112 85 65 48 39 36 34 31 29 25 22 20 18 17 16 15 13 12 12 11 10 9 8 7 7 7 6 5 5 5 5 4 3 2 2 2 2 1 2 2 2 3 3 4 4 5 6 7 7 8 7 7 7 7 7 7 6 6 5 4 3 2 2 1 1 1 0 360 359 358 358 357 357 356 357 356 355 355 354 353 351
138 133 136 144 144 130 104 77 57 43 37 36 34 30 26 22 19 18 16 15 15 14 13 12 12 11 10 9 9 8 7 7 6 5 5 4 3 3 2 1 1 1 1 1 2 2 2 3 3 3 4 5 6 6 7 7 7 7 7 7 6 6 6 6 5 4 3 2 2 1 1 0 0 360 359 358 358 357 357 356 356 356 355 355 354 354 353
137 138 145 148 138 116 87 63 49 42 40 37 32 27 23 20 18 16 15 14 13 13 12 12 11 11 11 10 10 9 8 7 6 5 4 3 2 2 1 0 0 0 0 1 1 2 2 3 3 3 4 5 5 6 6 7 7 7 6 6 6 6 6 5 5 4 3 2 2 1 1 0 360 359 359 358 358 357 357 356 356 356 355 355 355 354 353
139 144 149 144 128 98 70 53 46 45 43 36 29 23 21 19 17 15 13 13 13 13 12 12 12 11 11 11 10 9 8 6 5 4 3 2 1 1 360 359 359 360 0 1 1 2 2 3 3 3 4 4 5 5 6 6 6 6 6 6 6 5 5 5 5 4 3 2 2 1 1 0 360 359 359 358 358 358 357 357 356 356 355 355 355 355 354
145 150 149 138 110 78 60 53 49 46 40 32 26 22 19 17 15 13 12 13 13 13 13 12 12 11 11 10 9 8 6 5 4 2 1 1 360 359 359 359 359 359 0 0 1 1 2 3 3 3 4 4 5 5 5 5 6 6 6 5 5 5 5 5 5 4 3 2 2 1 0 360 359 359 359 358 358 358 357 357 357 356 355 354 355 355 355
151 152 143 117 83 66 60 56 51 43 34 27 23 20 17 15 13 12 12 13 14 13 13 12 11 9 8 8 7 6 5 4 2 1 -0 359 359 358 358 358 358 359 360 360 0 1 2 3 3 3 4 4 4 4 4 4 4 5 5 5 5 5 5 5 4 4 3 2 2 1 0 360 359 358 358 358 358 358 357 357 357 356 355 354 354 355 355
155 148 126 92 73 66 61 55 45 36 29 24 21 18 15 13 11 11 11 12 13 13 12 10 8 7 6 5 4 4 3 2 1 0 359 358 358 358 358 358 359 359 360 359 360 1 2 2 2 3 3 3 3 4 4 3 3 4 4 5 4 4 5 4 4 4 3 2 2 1 1 360 359 358 358 358 358 357 357 357 357 356 355 354 354 354 355
149 130 101 83 73 66 58 47 36 29 25 22 19 16 14 11 10 10 10 11 12 11 10 8 6 5 4 3 2 2 2 2 1 360 359 358 358 358 358 359 359 359 359 359 360 0 1 2 2 2 2 2 3 3 3 3 3 3 4 4 4 4 4 4 4 4 3 2 2 1 1 0 359 359 358 358 358 357 356 356 356 356 355 354 354 354 354
128 105 89 81 73 62 50 39 30 25 23 20 18 16 13 11 9 9 8 8 9 9 7 6 5 3 2 2 2 2 1 1 0 360 359 358 359 359 359 360 359 359 359 359 360 360 1 1 1 2 2 2 2 3 3 3 3 3 3 4 4 4 4 4 4 4 3 2 1 1 1 0 360 359 358 358 357 357 356 355 355 356 355 354 354 354 354
109 97 88 79 67 53 40 33 28 24 21 19 18 16 13 10 8 6 5 4 5 6 6 5 4 3 2 1 1 1 1 0 0 360 359 359 359 359 359 359 359 359 359 359 359 360 0 1 1 2 2 2 2 2 3 3 3 2 3 3 4 4 4 4 4 3 3 2 1 1 0 0 360 359 358 358 357 356 356 355 355 355 355 354 353 354 353
102 94 85 73 58 42 32 28 25 21 19 18 16 14 11 8 5 3 2 1 2 3 4 4 3 2 1 0 360 360 360 359 359 359 358 358 358 358 358 359 359 359 359 359 359 360 0 1 1 2 2 2 2 2 2 3 2 2 3 3 3 3 4 3 3 3 3 2 1 1 0 0 360 359 359 358 357 356 356 354 354 354 354 353 353 353 353
98 86 74 61 47 35 28 24 20 17 15 14 13 11 9 6 3 1 360 359 359 1 3 3 2 1 360 359 358 358 358 358 358 358 357 357 357 357 357 358 358 358 358 359 359 0 1 1 2 2 2 2 2 2 2 2 2 2 3 3 3 3 3 3 3 3 2 2 1 0 0 -0 360 359 359 358 357 356 355 355 354 354 354 353 352 353 353
90 75 61 46 35 28 24 21 16 13 11 11 10 9 8 5 2 360 358 357 357 359 1 1 0 360 359 358 357 357 357 357 357 356 356 355 355 356 356 357 357 357 358 358 360 1 2 2 2 3 3 3 2 2 2 2 2 2 2 3 3 3 3 3 3 2 2 1 1 0 0 360 359 359 358 358 357 356 355 355 354 353 353 352 352 352 352
75 59 44 32 26 22 19 15 12 9 8 7 7 7 5 3 0 358 357 355 356 358 360 0 359 359 358 357 356 356 356 355 355 355 355 355 355 355 356 357 357 357 357 358 359 1 2 2 3 3 3 3 2 2 2 2 2 2 2 2 2 2 3 2 2 2 2 1 1 0 360 359 359 358 358 358 357 357 355 355 354 353 353 352 352 352 352
58 37 25 21 19 17 14 11 8 6 5 4 4 4 2 1 359 357 355 354 354 356 359 360 359 358 358 357 357 356 355 354 354 355 355 354 355 355 356 357 357 357 357 357 359 1 2 2 3 3 3 3 2 2 2 2 2 2 2 2 2 2 2 2 2 2 1 1 1 -0 359 359 359 358 358 358 357 357 356 355 354 354 353 352 351 351 351
31 17 13 13 12 11 8 6 3 2 1 1 1 1 0 359 357 355 353 352 353 356 359 360 359 359 359 358 357 357 356 355 355 355 355 355 355 355 356 357 357 356 356 357 358 0 2 2 2 2 2 2 2 2 1 1 1 2 2 2 2 2 2 2 2 2 1 1 0 360 359 359 358 358 358 357 357 357 356 355 354 354 353 352 351 351 350
10 7 7 7 6 4 2 0 359 359 358 358 358 359 359 358 356 353 351 350 352 356 359 359 359 359 359 358 357 357 356 356 355 355 355 355 355 356 356 357 356 356 356 356 358 359 1 1 1 1 2 2 1 1 1 1 1 1 1 2 2 2 1 2 2 1 1 1 360 359 359 358 358 358 357 357 356 356 356 355 355 354 354 353 352 351 350
2 1 0 360 359 358 357 356 355 355 355 356 357 357 357 356 354 351 349 349 352 355 357 358 357 358 358 357 356 356 356 355 355 354 354 354 355 356 356 356 356 355 356 356 357 358 360 0 0 0 1 1 1 0 0 0 0 1 1 1 1 1 1 1 1 1 1 0 360 359 358 358 358 357 357 357 356 356 355 355 354 354 354 353 353 351 350